owner,sensor,date,latitude,longitude,vertical_datum,direction_of_sea_water_velocity,sea_water_speed,upward_sea_water_velocity,qcFlag 
TABS,ioos:station:wmo:42044:1,2005-02-01T00:00:00Z,26.1914,-97.0507,2.0,172.6972448,59.24051401,-99999.0,'11111222,11111222,99999999' 
TABS,ioos:station:wmo:42044:1,2005-02-01T00:30:00Z,26.1914,-97.0507,2.0,168.0389522,60.07424906,-99999.0,'11111222,11111222,99999999' 
TABS,ioos:station:wmo:42044:1,2005-02-01T01:00:00Z,26.1914,-97.0507,2.0,173.107053,56.91132488,-99999.0,'11111222,11111222,99999999' 
TABS,ioos:station:wmo:42044:1,2005-02-01T01:30:00Z,26.1914,-97.0507,2.0,177.4117241,50.27127709,-99999.0,'11111222,11111222,99999999' 
TABS,ioos:station:wmo:42044:1,2005-02-01T02:00:00Z,26.1914,-97.0507,2.0,166.5398955,46.0549943,-99999.0,'11111222,11111222,99999999' 
TABS,ioos:station:wmo:42044:1,2005-02-01T02:30:00Z,26.1914,-97.0507,2.0,163.5058994,52.65683811,-99999.0,'11111222,11111222,99999999' 
TABS,ioos:station:wmo:42044:1,2005-02-01T03:00:00Z,26.1914,-97.0507,2.0,174.693396,44.00860484,-99999.0,'11111222,11111222,99999999' 
TABS,ioos:station:wmo:42044:1,2005-02-01T03:30:00Z,26.1914,-97.0507,2.0,163.9395315,54.11192937,-99999.0,'11111222,11111222,99999999' 
TABS,ioos:station:wmo:42044:1,2005-02-01T04:00:00Z,26.1914,-97.0507,2.0,172.1446153,62.48633131,-99999.0,'11111222,11111222,99999999' 
TABS,ioos:station:wmo:42044:1,2005-02-01T04:30:00Z,26.1914,-97.0507,2.0,172.3668994,55.41097364,-99999.0,'11111222,11111222,99999999' 
TABS,ioos:station:wmo:42044:1,2005-02-01T05:00:00Z,26.1914,-97.0507,2.0,172.318552,52.89462449,-99999.0,'11111222,11111222,99999999' 
TABS,ioos:station:wmo:42044:1,2005-02-01T05:30:00Z,26.1914,-97.0507,2.0,166.7012503,52.55940068,-99999.0,'11111222,11111222,99999999' 
TABS,ioos:station:wmo:42044:1,2005-02-01T06:00:00Z,26.1914,-97.0507,2.0,170.5051528,58.25807841,-99999.0,'11111222,11111222,99999999' 
TABS,ioos:station:wmo:42044:1,2005-02-01T06:30:00Z,26.1914,-97.0507,2.0,170.6138528,53.04009238,-99999.0,'11111222,11111222,99999999' 
TABS,ioos:station:wmo:42044:1,2005-02-01T07:00:00Z,26.1914,-97.0507,2.0,165.6999803,50.08171123,-99999.0,'11111222,11111222,99999999' 
TABS,ioos:station:wmo:42044:1,2005-02-01T07:30:00Z,26.1914,-97.0507,2.0,165.6560918,46.09698472,-99999.0,'11111222,11111222,99999999' 
TABS,ioos:station:wmo:42044:1,2005-02-01T08:00:00Z,26.1914,-97.0507,2.0,167.527366,54.03523388,-99999.0,'11111222,11111222,99999999' 
TABS,ioos:station:wmo:42044:1,2005-02-01T08:30:00Z,26.1914,-97.0507,2.0,169.1402693,54.13953177,-99999.0,'11111222,11111222,99999999' 
TABS,ioos:station:wmo:42044:1,2005-02-01T09:00:00Z,26.1914,-97.0507,2.0,166.1480139,58.76911179,-99999.0,'11111222,11111222,99999999' 
TABS,ioos:station:wmo:42044:1,2005-02-01T09:30:00Z,26.1914,-97.0507,2.0,167.692366,54.18529413,-99999.0,'11111222,11111222,99999999' 
TABS,ioos:station:wmo:42044:1,2005-02-01T10:00:00Z,26.1914,-97.0507,2.0,169.2565668,53.53840117,-99999.0,'11111222,11111222,99999999' 
TABS,ioos:station:wmo:42044:1,2005-02-01T10:30:00Z,26.1914,-97.0507,2.0,169.7509791,55.81049453,-99999.0,'11111222,11111222,99999999' 
TABS,ioos:station:wmo:42044:1,2005-02-01T11:00:00Z,26.1914,-97.0507,2.0,168.4401323,57.13897881,-99999.0,'11111222,11111222,99999999' 
TABS,ioos:station:wmo:42044:1,2005-02-01T11:30:00Z,26.1914,-97.0507,2.0,169.4055737,54.01067487,-99999.0,'11111222,11111222,99999999' 
TABS,ioos:station:wmo:42044:1,2005-02-01T12:00:00Z,26.1914,-97.0507,2.0,168.698945,49.60169352,-99999.0,'11111222,11111222,99999999' 
TABS,ioos:station:wmo:42044:1,2005-02-01T12:30:00Z,26.1914,-97.0507,2.0,172.3209671,51.71373705,-99999.0,'11111222,11111222,99999999' 
TABS,ioos:station:wmo:42044:1,2005-02-01T13:00:00Z,26.1914,-97.0507,2.0,172.0964537,49.67181193,-99999.0,'11111222,11111222,99999999' 
TABS,ioos:station:wmo:42044:1,2005-02-01T13:30:00Z,26.1914,-97.0507,2.0,172.4548781,41.12606108,-99999.0,'11111222,11111222,99999999' 
TABS,ioos:station:wmo:42044:1,2005-02-01T14:00:00Z,26.1914,-97.0507,2.0,170.8733606,48.79774585,-99999.0,'11111222,11111222,99999999' 
TABS,ioos:station:wmo:42044:1,2005-02-01T14:30:00Z,26.1914,-97.0507,2.0,168.5925046,51.9257441,-99999.0,'11111222,11111222,99999999' 
TABS,ioos:station:wmo:42044:1,2005-02-01T15:00:00Z,26.1914,-97.0507,2.0,166.497095,54.17753132,-99999.0,'11111222,11111222,99999999' 
TABS,ioos:station:wmo:42044:1,2005-02-01T15:30:00Z,26.1914,-97.0507,2.0,168.1003711,54.70556919,-99999.0,'11111222,11111222,99999999' 
TABS,ioos:station:wmo:42044:1,2005-02-01T16:00:00Z,26.1914,-97.0507,2.0,167.0005365,55.21500158,-99999.0,'11111222,11111222,99999999' 
TABS,ioos:station:wmo:42044:1,2005-02-01T16:30:00Z,26.1914,-97.0507,2.0,168.2343866,57.23241913,-99999.0,'11111222,11111222,99999999' 
TABS,ioos:station:wmo:42044:1,2005-02-01T17:00:00Z,26.1914,-97.0507,2.0,166.5641351,57.15423431,-99999.0,'11111222,11111222,99999999' 
TABS,ioos:station:wmo:42044:1,2005-02-01T17:30:00Z,26.1914,-97.0507,2.0,164.3736867,58.91760772,-99999.0,'11111222,11111222,99999999' 
TABS,ioos:station:wmo:42044:1,2005-02-01T18:00:00Z,26.1914,-97.0507,2.0,167.2326406,56.83518716,-99999.0,'11111222,11111222,99999999' 
TABS,ioos:station:wmo:42044:1,2005-02-01T18:30:00Z,26.1914,-97.0507,2.0,166.6229598,62.80390832,-99999.0,'11111222,11111222,99999999' 
TABS,ioos:station:wmo:42044:1,2005-02-01T19:00:00Z,26.1914,-97.0507,2.0,166.8877561,66.91458212,-99999.0,'11111222,11111222,99999999' 
TABS,ioos:station:wmo:42044:1,2005-02-01T19:30:00Z,26.1914,-97.0507,2.0,165.6236901,70.32201647,-99999.0,'11111222,11111222,99999999' 
TABS,ioos:station:wmo:42044:1,2005-02-01T20:00:00Z,26.1914,-97.0507,2.0,168.2429053,71.89836299,-99999.0,'11111222,11111222,99999999' 
TABS,ioos:station:wmo:42044:1,2005-02-01T20:30:00Z,26.1914,-97.0507,2.0,166.4671034,72.30751275,-99999.0,'11111222,11111222,99999999' 
TABS,ioos:station:wmo:42044:1,2005-02-01T21:00:00Z,26.1914,-97.0507,2.0,165.2009924,70.70539725,-99999.0,'11111222,11111222,99999999' 
TABS,ioos:station:wmo:42044:1,2005-02-01T21:30:00Z,26.1914,-97.0507,2.0,165.5807884,72.96847127,-99999.0,'11111222,11111222,99999999' 
TABS,ioos:station:wmo:42044:1,2005-02-01T22:00:00Z,26.1914,-97.0507,2.0,164.4404948,70.53487719,-99999.0,'11111222,11111222,99999999' 
TABS,ioos:station:wmo:42044:1,2005-02-01T22:30:00Z,26.1914,-97.0507,2.0,162.0142839,67.33012476,-99999.0,'11111222,11111222,99999999' 
TABS,ioos:station:wmo:42044:1,2005-02-01T23:00:00Z,26.1914,-97.0507,2.0,160.9366131,66.04181478,-99999.0,'11111222,11111222,99999999' 
TABS,ioos:station:wmo:42044:1,2005-02-01T23:30:00Z,26.1914,-97.0507,2.0,163.0237791,62.84850515,-99999.0,'11111222,11111222,99999999' 
TABS,ioos:station:wmo:42044:1,2005-02-02T00:00:00Z,26.1914,-97.0507,2.0,166.0225026,63.67533667,-99999.0,'11111222,11111222,99999999' 
TABS,ioos:station:wmo:42044:1,2005-02-02T00:30:00Z,26.1914,-97.0507,2.0,165.5779043,69.18000361,-99999.0,'11111222,11111222,99999999' 
TABS,ioos:station:wmo:42044:1,2005-02-02T01:00:00Z,26.1914,-97.0507,2.0,164.5408622,72.9699349,-99999.0,'11111222,11111222,99999999' 
TABS,ioos:station:wmo:42044:1,2005-02-02T01:30:00Z,26.1914,-97.0507,2.0,165.6346596,81.53939539,-99999.0,'11111222,11111222,99999999' 
TABS,ioos:station:wmo:42044:1,2005-02-02T02:00:00Z,26.1914,-97.0507,2.0,162.9688125,74.60155092,-99999.0,'11111222,11111222,99999999' 
TABS,ioos:station:wmo:42044:1,2005-02-02T02:30:00Z,26.1914,-97.0507,2.0,166.0198743,74.05343814,-99999.0,'11111222,11111222,99999999' 
TABS,ioos:station:wmo:42044:1,2005-02-02T03:00:00Z,26.1914,-97.0507,2.0,166.3617422,71.54731162,-99999.0,'11111222,11111222,99999999' 
TABS,ioos:station:wmo:42044:1,2005-02-02T03:30:00Z,26.1914,-97.0507,2.0,167.4969775,76.58622135,-99999.0,'11111222,11111222,99999999' 
TABS,ioos:station:wmo:42044:1,2005-02-02T04:00:00Z,26.1914,-97.0507,2.0,166.0378666,84.17691014,-99999.0,'11111222,11111222,99999999' 
TABS,ioos:station:wmo:42044:1,2005-02-02T04:30:00Z,26.1914,-97.0507,2.0,166.9909637,81.42987474,-99999.0,'11111222,11111222,99999999' 
TABS,ioos:station:wmo:42044:1,2005-02-02T05:00:00Z,26.1914,-97.0507,2.0,164.4924494,82.47231899,-99999.0,'11111222,11111222,99999999' 
TABS,ioos:station:wmo:42044:1,2005-02-02T05:30:00Z,26.1914,-97.0507,2.0,164.1210092,86.29271174,-99999.0,'11111222,11111222,99999999' 
TABS,ioos:station:wmo:42044:1,2005-02-02T06:00:00Z,26.1914,-97.0507,2.0,168.3915059,84.73312516,-99999.0,'11111222,11111222,99999999' 
TABS,ioos:station:wmo:42044:1,2005-02-02T06:30:00Z,26.1914,-97.0507,2.0,169.3470922,75.57244074,-99999.0,'11111222,11111222,99999999' 
TABS,ioos:station:wmo:42044:1,2005-02-02T07:00:00Z,26.1914,-97.0507,2.0,170.5966792,74.79500318,-99999.0,'11111222,11111222,99999999' 
TABS,ioos:station:wmo:42044:1,2005-02-02T07:30:00Z,26.1914,-97.0507,2.0,167.2778098,69.15782313,-99999.0,'11111222,11111222,99999999' 
TABS,ioos:station:wmo:42044:1,2005-02-02T08:00:00Z,26.1914,-97.0507,2.0,167.2660441,61.24636806,-99999.0,'11111222,11111222,99999999' 
TABS,ioos:station:wmo:42044:1,2005-02-02T08:30:00Z,26.1914,-97.0507,2.0,168.2759428,68.4070932,-99999.0,'11111222,11111222,99999999' 
TABS,ioos:station:wmo:42044:1,2005-02-02T09:00:00Z,26.1914,-97.0507,2.0,169.6703914,85.49561977,-99999.0,'11111222,11111222,99999999' 
TABS,ioos:station:wmo:42044:1,2005-02-02T09:30:00Z,26.1914,-97.0507,2.0,169.0717397,82.39414057,-99999.0,'11111222,11111222,99999999' 
TABS,ioos:station:wmo:42044:1,2005-02-02T10:00:00Z,26.1914,-97.0507,2.0,170.3612173,80.68904882,-99999.0,'11111222,11111222,99999999' 
TABS,ioos:station:wmo:42044:1,2005-02-02T10:30:00Z,26.1914,-97.0507,2.0,167.7621224,80.90851253,-99999.0,'11111222,11111222,99999999' 
TABS,ioos:station:wmo:42044:1,2005-02-02T11:00:00Z,26.1914,-97.0507,2.0,169.0515129,91.35271534,-99999.0,'11111222,11111222,99999999' 
TABS,ioos:station:wmo:42044:1,2005-02-02T11:30:00Z,26.1914,-97.0507,2.0,170.7644473,94.21122279,-99999.0,'11111222,11111222,99999999' 
TABS,ioos:station:wmo:42044:1,2005-02-02T12:00:00Z,26.1914,-97.0507,2.0,170.2537068,87.95946908,-99999.0,'11111222,11111222,99999999' 
TABS,ioos:station:wmo:42044:1,2005-02-02T12:30:00Z,26.1914,-97.0507,2.0,168.9688693,74.10924369,-99999.0,'11111222,11111222,99999999' 
TABS,ioos:station:wmo:42044:1,2005-02-02T13:00:00Z,26.1914,-97.0507,2.0,167.1345884,62.06812789,-99999.0,'11111222,11111222,99999999' 
TABS,ioos:station:wmo:42044:1,2005-02-02T13:30:00Z,26.1914,-97.0507,2.0,158.4750132,57.3173909,-99999.0,'11111222,11111222,99999999' 
TABS,ioos:station:wmo:42044:1,2005-02-02T14:00:00Z,26.1914,-97.0507,2.0,156.7290571,61.48165987,-99999.0,'11111222,11111222,99999999' 
TABS,ioos:station:wmo:42044:1,2005-02-02T14:30:00Z,26.1914,-97.0507,2.0,161.9151635,63.62305321,-99999.0,'11111222,11111222,99999999' 
TABS,ioos:station:wmo:42044:1,2005-02-02T15:00:00Z,26.1914,-97.0507,2.0,162.5988349,76.40674447,-99999.0,'11111222,11111222,99999999' 
TABS,ioos:station:wmo:42044:1,2005-02-02T15:30:00Z,26.1914,-97.0507,2.0,161.0537517,76.56811347,-99999.0,'11111222,11111222,99999999' 
TABS,ioos:station:wmo:42044:1,2005-02-02T16:00:00Z,26.1914,-97.0507,2.0,158.1876738,79.12478499,-99999.0,'11111222,11111222,99999999' 
TABS,ioos:station:wmo:42044:1,2005-02-02T16:30:00Z,26.1914,-97.0507,2.0,156.7012871,80.52641865,-99999.0,'11111222,11111222,99999999' 
TABS,ioos:station:wmo:42044:1,2005-02-02T17:00:00Z,26.1914,-97.0507,2.0,155.3427596,78.98145922,-99999.0,'11111222,11111222,99999999' 
TABS,ioos:station:wmo:42044:1,2005-02-02T17:30:00Z,26.1914,-97.0507,2.0,151.7544352,82.0497855,-99999.0,'11111222,11111222,99999999' 
TABS,ioos:station:wmo:42044:1,2005-02-02T18:00:00Z,26.1914,-97.0507,2.0,152.9968298,64.35591659,-99999.0,'11111222,11111222,99999999' 
TABS,ioos:station:wmo:42044:1,2005-02-02T18:30:00Z,26.1914,-97.0507,2.0,150.3391992,62.44163355,-99999.0,'11111222,11111222,99999999' 
TABS,ioos:station:wmo:42044:1,2005-02-02T19:00:00Z,26.1914,-97.0507,2.0,157.8651111,59.05211681,-99999.0,'11111222,11111222,99999999' 
TABS,ioos:station:wmo:42044:1,2005-02-02T19:30:00Z,26.1914,-97.0507,2.0,171.9789046,48.23184114,-99999.0,'11111222,11111222,99999999' 
TABS,ioos:station:wmo:42044:1,2005-02-02T20:00:00Z,26.1914,-97.0507,2.0,169.3470904,42.57373016,-99999.0,'11111222,11111222,99999999' 
TABS,ioos:station:wmo:42044:1,2005-02-02T20:30:00Z,26.1914,-97.0507,2.0,166.567793,41.62870404,-99999.0,'11111222,11111222,99999999' 
TABS,ioos:station:wmo:42044:1,2005-02-02T21:00:00Z,26.1914,-97.0507,2.0,165.9635789,40.48889724,-99999.0,'11111222,11111222,99999999' 
TABS,ioos:station:wmo:42044:1,2005-02-02T21:30:00Z,26.1914,-97.0507,2.0,164.2140437,42.89787058,-99999.0,'11111222,11111222,99999999' 
TABS,ioos:station:wmo:42044:1,2005-02-02T22:00:00Z,26.1914,-97.0507,2.0,164.1844265,38.74676761,-99999.0,'11111222,11111222,99999999' 
TABS,ioos:station:wmo:42044:1,2005-02-02T22:30:00Z,26.1914,-97.0507,2.0,164.4700566,43.36312373,-99999.0,'11111222,11111222,99999999' 
TABS,ioos:station:wmo:42044:1,2005-02-02T23:00:00Z,26.1914,-97.0507,2.0,162.8549266,44.9473581,-99999.0,'11111222,11111222,99999999' 
TABS,ioos:station:wmo:42044:1,2005-02-02T23:30:00Z,26.1914,-97.0507,2.0,166.8754438,44.34840471,-99999.0,'11111222,11111222,99999999' 
TABS,ioos:station:wmo:42044:1,2005-02-03T00:00:00Z,26.1914,-97.0507,2.0,167.4620172,41.45866496,-99999.0,'11111222,11111222,99999999' 
TABS,ioos:station:wmo:42044:1,2005-02-03T00:30:00Z,26.1914,-97.0507,2.0,161.2780379,39.16213733,-99999.0,'11111222,11111222,99999999' 
TABS,ioos:station:wmo:42044:1,2005-02-03T01:00:00Z,26.1914,-97.0507,2.0,163.6752044,37.35602361,-99999.0,'11111222,11111222,99999999' 
TABS,ioos:station:wmo:42044:1,2005-02-03T01:30:00Z,26.1914,-97.0507,2.0,166.4179247,38.53769713,-99999.0,'11111222,11111222,99999999' 
TABS,ioos:station:wmo:42044:1,2005-02-03T02:00:00Z,26.1914,-97.0507,2.0,166.7851046,39.41366514,-99999.0,'11111222,11111222,99999999' 
TABS,ioos:station:wmo:42044:1,2005-02-03T02:30:00Z,26.1914,-97.0507,2.0,167.4826367,37.41942009,-99999.0,'11111222,11111222,99999999' 
TABS,ioos:station:wmo:42044:1,2005-02-03T03:00:00Z,26.1914,-97.0507,2.0,161.6970092,42.51061162,-99999.0,'11111222,11111222,99999999' 
TABS,ioos:station:wmo:42044:1,2005-02-03T03:30:00Z,26.1914,-97.0507,2.0,166.2921847,40.17426166,-99999.0,'11111222,11111222,99999999' 
TABS,ioos:station:wmo:42044:1,2005-02-03T04:00:00Z,26.1914,-97.0507,2.0,166.271599,41.50572129,-99999.0,'11111222,11111222,99999999' 
TABS,ioos:station:wmo:42044:1,2005-02-03T04:30:00Z,26.1914,-97.0507,2.0,163.9084873,40.44457566,-99999.0,'11111222,11111222,99999999' 
TABS,ioos:station:wmo:42044:1,2005-02-03T05:00:00Z,26.1914,-97.0507,2.0,165.4757375,43.58280624,-99999.0,'11111222,11111222,99999999' 
TABS,ioos:station:wmo:42044:1,2005-02-03T05:30:00Z,26.1914,-97.0507,2.0,173.7283269,46.96104024,-99999.0,'11111222,11111222,99999999' 
TABS,ioos:station:wmo:42044:1,2005-02-03T06:00:00Z,26.1914,-97.0507,2.0,170.4995704,47.1973156,-99999.0,'11111222,11111222,99999999' 
TABS,ioos:station:wmo:42044:1,2005-02-03T06:30:00Z,26.1914,-97.0507,2.0,167.6771353,43.71719341,-99999.0,'11111222,11111222,99999999' 
TABS,ioos:station:wmo:42044:1,2005-02-03T07:00:00Z,26.1914,-97.0507,2.0,170.8329219,40.17307058,-99999.0,'11111222,11111222,99999999' 
TABS,ioos:station:wmo:42044:1,2005-02-03T07:30:00Z,26.1914,-97.0507,2.0,164.5840728,41.6069189,-99999.0,'11111222,11111222,99999999' 
TABS,ioos:station:wmo:42044:1,2005-02-03T08:00:00Z,26.1914,-97.0507,2.0,167.6329557,49.11975977,-99999.0,'11111222,11111222,99999999' 
TABS,ioos:station:wmo:42044:1,2005-02-03T08:30:00Z,26.1914,-97.0507,2.0,174.4039244,64.60789425,-99999.0,'11111222,11111222,99999999' 
TABS,ioos:station:wmo:42044:1,2005-02-03T09:00:00Z,26.1914,-97.0507,2.0,174.9108965,54.56508132,-99999.0,'11111222,11111222,99999999' 
TABS,ioos:station:wmo:42044:1,2005-02-03T09:30:00Z,26.1914,-97.0507,2.0,174.916856,45.59932017,-99999.0,'11111222,11111222,99999999' 
TABS,ioos:station:wmo:42044:1,2005-02-03T10:00:00Z,26.1914,-97.0507,2.0,181.1715533,44.49930561,-99999.0,'11111222,11111222,99999999' 
TABS,ioos:station:wmo:42044:1,2005-02-03T10:30:00Z,26.1914,-97.0507,2.0,177.4690324,38.04710896,-99999.0,'11111222,11111222,99999999' 
TABS,ioos:station:wmo:42044:1,2005-02-03T11:00:00Z,26.1914,-97.0507,2.0,178.6963212,51.43330925,-99999.0,'11111222,11111222,99999999' 
TABS,ioos:station:wmo:42044:1,2005-02-03T11:30:00Z,26.1914,-97.0507,2.0,174.8599884,54.13768466,-99999.0,'11111222,11111222,99999999' 
TABS,ioos:station:wmo:42044:1,2005-02-03T12:00:00Z,26.1914,-97.0507,2.0,173.3319263,60.63010803,-99999.0,'11111222,11111222,99999999' 
TABS,ioos:station:wmo:42044:1,2005-02-03T12:30:00Z,26.1914,-97.0507,2.0,170.9686765,60.07473512,-99999.0,'11111222,11111222,99999999' 
TABS,ioos:station:wmo:42044:1,2005-02-03T13:00:00Z,26.1914,-97.0507,2.0,170.6921686,64.5498536,-99999.0,'11111222,11111222,99999999' 
TABS,ioos:station:wmo:42044:1,2005-02-03T13:30:00Z,26.1914,-97.0507,2.0,173.582317,71.21625166,-99999.0,'11111222,11111222,99999999' 
TABS,ioos:station:wmo:42044:1,2005-02-03T14:00:00Z,26.1914,-97.0507,2.0,172.4571806,73.5160996,-99999.0,'11111222,11111222,99999999' 
TABS,ioos:station:wmo:42044:1,2005-02-03T14:30:00Z,26.1914,-97.0507,2.0,173.0262007,68.52694944,-99999.0,'11111222,11111222,99999999' 
TABS,ioos:station:wmo:42044:1,2005-02-03T15:00:00Z,26.1914,-97.0507,2.0,170.7089309,71.97419885,-99999.0,'11111222,11111222,99999999' 
TABS,ioos:station:wmo:42044:1,2005-02-03T15:30:00Z,26.1914,-97.0507,2.0,169.1309951,76.42087804,-99999.0,'11111222,11111222,99999999' 
TABS,ioos:station:wmo:42044:1,2005-02-03T16:00:00Z,26.1914,-97.0507,2.0,166.4560419,74.21379184,-99999.0,'11111222,11111222,99999999' 
TABS,ioos:station:wmo:42044:1,2005-02-03T16:30:00Z,26.1914,-97.0507,2.0,165.9085808,78.32691619,-99999.0,'11111222,11111222,99999999' 
TABS,ioos:station:wmo:42044:1,2005-02-03T17:00:00Z,26.1914,-97.0507,2.0,164.3519982,79.08091679,-99999.0,'11111222,11111222,99999999' 
TABS,ioos:station:wmo:42044:1,2005-02-03T17:30:00Z,26.1914,-97.0507,2.0,164.2548929,79.30560699,-99999.0,'11111222,11111222,99999999' 
TABS,ioos:station:wmo:42044:1,2005-02-03T18:00:00Z,26.1914,-97.0507,2.0,162.3186033,75.0030666,-99999.0,'11111222,11111222,99999999' 
TABS,ioos:station:wmo:42044:1,2005-02-03T18:30:00Z,26.1914,-97.0507,2.0,164.9078387,75.16242279,-99999.0,'11111222,11111222,99999999' 
TABS,ioos:station:wmo:42044:1,2005-02-03T19:00:00Z,26.1914,-97.0507,2.0,160.2771598,76.68878992,-99999.0,'11111222,11111222,99999999' 
TABS,ioos:station:wmo:42044:1,2005-02-03T19:30:00Z,26.1914,-97.0507,2.0,160.4389985,74.19187085,-99999.0,'11111222,11111222,99999999' 
TABS,ioos:station:wmo:42044:1,2005-02-03T20:00:00Z,26.1914,-97.0507,2.0,158.4889534,66.65248457,-99999.0,'11111222,11111222,99999999' 
TABS,ioos:station:wmo:42044:1,2005-02-03T20:30:00Z,26.1914,-97.0507,2.0,162.5338155,64.70312821,-99999.0,'11111222,11111222,99999999' 
TABS,ioos:station:wmo:42044:1,2005-02-03T21:00:00Z,26.1914,-97.0507,2.0,159.1446582,70.61656817,-99999.0,'11111222,11111222,99999999' 
TABS,ioos:station:wmo:42044:1,2005-02-03T21:30:00Z,26.1914,-97.0507,2.0,163.3890857,79.37228547,-99999.0,'11111222,11111222,99999999' 
TABS,ioos:station:wmo:42044:1,2005-02-03T22:00:00Z,26.1914,-97.0507,2.0,163.3759733,79.34639815,-99999.0,'11111222,11111222,99999999' 
TABS,ioos:station:wmo:42044:1,2005-02-03T22:30:00Z,26.1914,-97.0507,2.0,160.6686352,76.21705387,-99999.0,'11111222,11111222,99999999' 
TABS,ioos:station:wmo:42044:1,2005-02-03T23:00:00Z,26.1914,-97.0507,2.0,160.8571749,68.61401023,-99999.0,'11111222,11111222,99999999' 
TABS,ioos:station:wmo:42044:1,2005-02-03T23:30:00Z,26.1914,-97.0507,2.0,159.767002,70.95849491,-99999.0,'11111222,11111222,99999999' 
TABS,ioos:station:wmo:42044:1,2005-02-04T00:00:00Z,26.1914,-97.0507,2.0,156.7477603,64.69470767,-99999.0,'11111222,11111222,99999999' 
TABS,ioos:station:wmo:42044:1,2005-02-04T00:30:00Z,26.1914,-97.0507,2.0,155.3236164,66.75606714,-99999.0,'11111222,11111222,99999999' 
TABS,ioos:station:wmo:42044:1,2005-02-04T01:00:00Z,26.1914,-97.0507,2.0,155.3654284,63.98339238,-99999.0,'11111222,11111222,99999999' 
TABS,ioos:station:wmo:42044:1,2005-02-04T01:30:00Z,26.1914,-97.0507,2.0,156.6996396,51.82673055,-99999.0,'11111222,11111222,99999999' 
TABS,ioos:station:wmo:42044:1,2005-02-04T02:00:00Z,26.1914,-97.0507,2.0,153.2342833,53.67043227,-99999.0,'11111222,11111222,99999999' 
TABS,ioos:station:wmo:42044:1,2005-02-04T02:30:00Z,26.1914,-97.0507,2.0,164.9004943,49.67499572,-99999.0,'11111222,11111222,99999999' 
TABS,ioos:station:wmo:42044:1,2005-02-04T03:00:00Z,26.1914,-97.0507,2.0,167.1698962,48.5008969,-99999.0,'11111222,11111222,99999999' 
TABS,ioos:station:wmo:42044:1,2005-02-04T03:30:00Z,26.1914,-97.0507,2.0,169.8702209,49.12574885,-99999.0,'11111222,11111222,99999999' 
TABS,ioos:station:wmo:42044:1,2005-02-04T04:00:00Z,26.1914,-97.0507,2.0,172.9176804,46.39396512,-99999.0,'11111222,11111222,99999999' 
TABS,ioos:station:wmo:42044:1,2005-02-04T04:30:00Z,26.1914,-97.0507,2.0,172.6690476,46.63115911,-99999.0,'11111222,11111222,99999999' 
TABS,ioos:station:wmo:42044:1,2005-02-04T05:00:00Z,26.1914,-97.0507,2.0,169.6883678,46.59250154,-99999.0,'11111222,11111222,99999999' 
TABS,ioos:station:wmo:42044:1,2005-02-04T05:30:00Z,26.1914,-97.0507,2.0,165.5288465,52.423159,-99999.0,'11111222,11111222,99999999' 
TABS,ioos:station:wmo:42044:1,2005-02-04T06:00:00Z,26.1914,-97.0507,2.0,159.8830195,34.04709973,-99999.0,'11111222,11111222,99999999' 
TABS,ioos:station:wmo:42044:1,2005-02-04T06:30:00Z,26.1914,-97.0507,2.0,163.3673264,46.04657208,-99999.0,'11111222,11111222,99999999' 
TABS,ioos:station:wmo:42044:1,2005-02-04T07:00:00Z,26.1914,-97.0507,2.0,162.7398558,46.88113693,-99999.0,'11111222,11111222,99999999' 
TABS,ioos:station:wmo:42044:1,2005-02-04T07:30:00Z,26.1914,-97.0507,2.0,160.9555428,46.98145379,-99999.0,'11111222,11111222,99999999' 
TABS,ioos:station:wmo:42044:1,2005-02-04T08:00:00Z,26.1914,-97.0507,2.0,162.2624271,48.05437025,-99999.0,'11111222,11111222,99999999' 
TABS,ioos:station:wmo:42044:1,2005-02-04T08:30:00Z,26.1914,-97.0507,2.0,163.9892445,48.29325833,-99999.0,'11111222,11111222,99999999' 
TABS,ioos:station:wmo:42044:1,2005-02-04T09:00:00Z,26.1914,-97.0507,2.0,169.7804955,55.12450363,-99999.0,'11111222,11111222,99999999' 
TABS,ioos:station:wmo:42044:1,2005-02-04T09:30:00Z,26.1914,-97.0507,2.0,167.9921361,56.52682284,-99999.0,'11111222,11111222,99999999' 
TABS,ioos:station:wmo:42044:1,2005-02-04T10:00:00Z,26.1914,-97.0507,2.0,166.7886348,55.91996066,-99999.0,'11111222,11111222,99999999' 
TABS,ioos:station:wmo:42044:1,2005-02-04T10:30:00Z,26.1914,-97.0507,2.0,165.790002,55.24016745,-99999.0,'11111222,11111222,99999999' 
TABS,ioos:station:wmo:42044:1,2005-02-04T11:00:00Z,26.1914,-97.0507,2.0,170.5907669,54.80735808,-99999.0,'11111222,11111222,99999999' 
TABS,ioos:station:wmo:42044:1,2005-02-04T11:30:00Z,26.1914,-97.0507,2.0,170.0067928,48.81050911,-99999.0,'11111222,11111222,99999999' 
TABS,ioos:station:wmo:42044:1,2005-02-04T12:00:00Z,26.1914,-97.0507,2.0,173.5075877,56.60298225,-99999.0,'11111222,11111222,99999999' 
TABS,ioos:station:wmo:42044:1,2005-02-04T12:30:00Z,26.1914,-97.0507,2.0,173.0189178,68.53809014,-99999.0,'11111222,11111222,99999999' 
TABS,ioos:station:wmo:42044:1,2005-02-04T13:00:00Z,26.1914,-97.0507,2.0,169.8851641,74.36576968,-99999.0,'11111222,11111222,99999999' 
TABS,ioos:station:wmo:42044:1,2005-02-04T13:30:00Z,26.1914,-97.0507,2.0,166.9132929,82.2357246,-99999.0,'11111222,11111222,99999999' 
TABS,ioos:station:wmo:42044:1,2005-02-04T14:00:00Z,26.1914,-97.0507,2.0,165.5538669,91.91607585,-99999.0,'11111222,11111222,99999999' 
TABS,ioos:station:wmo:42044:1,2005-02-04T14:30:00Z,26.1914,-97.0507,2.0,166.4684622,96.33403967,-99999.0,'11111222,11111222,99999999' 
TABS,ioos:station:wmo:42044:1,2005-02-04T15:00:00Z,26.1914,-97.0507,2.0,168.7230827,91.38425083,-99999.0,'11111222,11111222,99999999' 
TABS,ioos:station:wmo:42044:1,2005-02-04T15:30:00Z,26.1914,-97.0507,2.0,171.5696524,85.60493502,-99999.0,'11111222,11111222,99999999' 
TABS,ioos:station:wmo:42044:1,2005-02-04T16:00:00Z,26.1914,-97.0507,2.0,170.4119295,77.26935356,-99999.0,'11111222,11111222,99999999' 